Hickam AFB, HI

3:36 AM HST on February 24, 2017 (GMT -1000)
Honolulu International

Weather History for PHNL - June, 2013

Change the Weather History Date:

Saturday, June 8, 2013

  Actual Average Record
Temperature  
Mean Temperature 80 °F 80 °F  
Max Temperature 85 °F 87 °F 90 °F (1970)
Min Temperature 74 °F 73 °F 69 °F (1955)
Degree Days  
Heating Degree Days 0 0  
Month to date heating degree days 0 0  
Since 1 June heating degree days 0 0  
Since 1 July heating degree days 0 0  
Cooling Degree Days 15 15  
Month to date cooling degree days 114 117  
Year to date cooling degree days 1574 1619  
Since 1 June cooling degree days 114 117  
Growing Degree Days 28 (Base 50)    
Moisture  
Dew Point 63 °F    
Average Humidity 59    
Maximum Humidity 73    
Minimum Humidity 44    
Precipitation  
Precipitation 0.00 in 0.01 in 0.17 in (1996)
Month to date precipitation T 0.08  
Year to date precipitation 8.46 7.65  
Snow  
Snow 0.00 in - - ()
Month to date snowfall 0.0  
Since 1 June snowfall 0.0  
Since 1 July snowfall 0.0  
Snow Depth 0.00 in    
Sea Level Pressure  
Sea Level Pressure 30.02 in    
Wind  
Wind Speed 16 mph (ENE)    
Max Wind Speed 24 mph    
Max Gust Speed 30 mph    
Visibility 10 miles    
Events      
T = Trace of Precipitation, MM = Missing Value Source: NWS Daily Summary

Daily Weather History Graph

Daily Weather History Graph

Search for Another Location

Airport or City:

Trip Planner

Search our weather history database for the weather conditions in past years. The results will help you decide how hot, cold, wet, or windy it might be!

Date:

Astronomy

Jun. 08, 2013 Rise Set
Actual Time 5:48 AM HST 7:12 PM HST
Civil Twilight 5:24 AM HST 7:37 PM HST
Nautical Twilight 4:54 AM HST 8:07 PM HST
Astronomical Twilight 4:24 AM HST 8:37 PM HST
Moon 5:59 AM HST (6/8) 7:30 PM HST (6/8)
Length of Visible Light 14h 13m
Length of Day
13h 23m
New Moon, 0% of the Moon is Illuminated
Jun 8
New Moon
Jun 16
First Quarter
Jun 23
Full
Jun 29
Last Quarter
Jul 7
New

Hourly Weather History & Observations

Time (HST) Temp. Heat Index Dew Point Humidity Pressure Visibility Wind Dir Wind Speed Gust Speed Precip Events Conditions
12:53 AM 73.9 °F - 64.0 °F 71% 30.03 in 10.0 mi ENE 10.4 mph - N/A   Mostly Cloudy
1:53 AM 75.0 °F - 63.0 °F 66% 30.02 in 10.0 mi ENE 16.1 mph - N/A   Mostly Cloudy
2:53 AM 75.0 °F - 63.0 °F 66% 30.01 in 10.0 mi ENE 12.7 mph - N/A   Mostly Cloudy
3:53 AM 73.9 °F - 63.0 °F 68% 30.00 in 10.0 mi ENE 13.8 mph - N/A   Mostly Cloudy
4:53 AM 73.9 °F - 62.1 °F 66% 30.00 in 10.0 mi ENE 15.0 mph - N/A   Mostly Cloudy
5:02 AM 73.4 °F - 62.6 °F 69% 30.00 in 10.0 mi NE 12.7 mph 21.9 mph N/A   Mostly Cloudy
5:53 AM 73.9 °F - 64.0 °F 71% 30.01 in 10.0 mi East 15.0 mph - N/A   Mostly Cloudy
6:53 AM 75.0 °F - 63.0 °F 66% 30.03 in 10.0 mi East 9.2 mph - N/A   Mostly Cloudy
7:53 AM 75.9 °F - 62.1 °F 62% 30.02 in 10.0 mi NE 16.1 mph - N/A   Mostly Cloudy
8:53 AM 80.1 °F 81.2 °F 62.1 °F 54% 30.03 in 10.0 mi NE 19.6 mph 25.3 mph N/A   Mostly Cloudy
9:53 AM 81.0 °F 81.9 °F 62.1 °F 52% 30.04 in 10.0 mi ENE 18.4 mph 25.3 mph N/A   Mostly Cloudy
10:53 AM 82.0 °F 83.0 °F 62.1 °F 51% 30.04 in 10.0 mi ENE 18.4 mph 25.3 mph N/A   Mostly Cloudy
11:53 AM 84.0 °F 84.4 °F 61.0 °F 46% 30.03 in 10.0 mi East 20.7 mph 27.6 mph N/A   Mostly Cloudy
12:53 PM 84.0 °F 84.4 °F 61.0 °F 46% 30.02 in 10.0 mi ENE 18.4 mph 27.6 mph N/A   Mostly Cloudy
1:53 PM 84.0 °F 84.4 °F 61.0 °F 46% 30.01 in 10.0 mi NE 17.3 mph 26.5 mph N/A   Mostly Cloudy
2:53 PM 84.0 °F 84.5 °F 62.1 °F 47% 29.99 in 10.0 mi NE 17.3 mph - N/A   Mostly Cloudy
3:53 PM 82.0 °F 82.7 °F 61.0 °F 49% 29.99 in 10.0 mi NE 16.1 mph 23.0 mph N/A   Mostly Cloudy
4:53 PM 81.0 °F 82.2 °F 63.0 °F 54% 29.99 in 10.0 mi ENE 16.1 mph 23.0 mph N/A   Mostly Cloudy
5:53 PM 79.0 °F - 63.0 °F 58% 30.01 in 10.0 mi ENE 18.4 mph 24.2 mph N/A   Overcast
6:53 PM 77.0 °F - 63.0 °F 62% 30.02 in 10.0 mi ENE 15.0 mph - N/A   Overcast
7:53 PM 75.9 °F - 63.0 °F 64% 30.04 in 10.0 mi ENE 13.8 mph - N/A   Mostly Cloudy
8:53 PM 75.9 °F - 64.0 °F 67% 30.06 in 10.0 mi NE 9.2 mph - N/A   Mostly Cloudy
9:53 PM 75.9 °F - 63.0 °F 64% 30.07 in 10.0 mi NE 13.8 mph - N/A   Scattered Clouds
10:53 PM 75.9 °F - 64.0 °F 67% 30.07 in 10.0 mi NE 11.5 mph - N/A   Scattered Clouds
11:53 PM 75.0 °F - 64.0 °F 69% 30.06 in 10.0 mi NE 13.8 mph - N/A   Scattered Clouds